Weather History for VOTR - January, 2013

Change the Weather History Date:

Sunday, January 13, 2013

  Actual Average Record
Temperature  
Mean Temperature 78 °F -  
Max Temperature 89 °F 85 °F 91 °F (2005)
Min Temperature 68 °F 72 °F 64 °F (2015)
Cooling Degree Days 14    
Growing Degree Days 28 (Base 50)    
Moisture  
Dew Point 64 °F    
Average Humidity 64    
Maximum Humidity 88    
Minimum Humidity 32    
Precipitation  
Precipitation 0.00 in - - ()
Sea Level Pressure  
Sea Level Pressure 29.93 in    
Wind  
Wind Speed 3 mph ()    
Max Wind Speed 14 mph    
Max Gust Speed -    
Visibility 2.4 miles    
Events      
Averages and records for this station are not official NWS values.
T = Trace of Precipitation, MM = Missing Value Source: Averaged Metar Reports

Daily Weather History Graph

Daily Weather History Graph

Search for Another Location

Airport or City:

Trip Planner

Search our weather history database for the weather conditions in past years. The results will help you decide how hot, cold, wet, or windy it might be!

Date:

Astronomy

Jan. 13, 2013 Rise Set
Actual Time 6:37 AM IST 6:10 PM IST
Civil Twilight 6:14 AM IST 6:33 PM IST
Nautical Twilight 5:48 AM IST 6:59 PM IST
Astronomical Twilight 5:22 AM IST 7:25 PM IST
Moon 7:41 AM IST (1/13) 7:48 PM IST (1/13)
Length of Visible Light 12h 18m
Length of Day
11h 33m
Waxing Crescent, 3% of the Moon is Illuminated
Jan 13
Waxing Crescent
Jan 19
First Quarter
Jan 27
Full
Feb 3
Last Quarter
Feb 10
New

Hourly Weather History & Observations

Time (IST) Temp. Heat Index Dew Point Humidity Pressure Visibility Wind Dir Wind Speed Gust Speed Precip Events Conditions
12:10 AM 73.4 °F - 66.2 °F 78% 29.95 in 2.5 mi Calm Calm - N/A   Haze
12:40 AM 73.4 °F - 66.2 °F 78% 29.95 in 2.5 mi Calm Calm - N/A   Haze
1:40 AM 71.6 °F - 66.2 °F 83% 29.95 in 1.9 mi NE 3.5 mph - N/A   Haze
2:10 AM 71.6 °F - 66.2 °F 83% 29.95 in 1.9 mi NNE 3.5 mph - N/A   Haze
2:30 AM 72 °F - 66 °F 77% 29.94 in 1 mi NE 2.3 mph - -   Haze
2:40 AM 71.6 °F - 66.2 °F 83% 29.95 in 1.9 mi NNE 4.6 mph - N/A   Haze
3:10 AM 71.6 °F - 66.2 °F 83% 29.95 in 1.9 mi NNE 3.5 mph - N/A   Haze
3:40 AM 71.6 °F - 68.0 °F 88% 29.95 in 1.6 mi NNE 3.5 mph - N/A   Haze
4:10 AM 71.6 °F - 68.0 °F 88% 29.92 in 1.6 mi NNE 3.5 mph - N/A   Haze
4:40 AM 71.6 °F - 66.2 °F 83% 29.95 in 1.6 mi NNE 2.3 mph - N/A   Haze
5:10 AM 71.6 °F - 66.2 °F 83% 29.95 in 1.6 mi NNE 3.5 mph - N/A   Haze
5:30 AM 71 °F - 65 °F 77% 29.96 in 1 mi NNE 2.3 mph - -   Haze
5:40 AM 69.8 °F - 66.2 °F 88% 29.95 in 1.6 mi Calm Calm - N/A   Haze
6:10 AM 69.8 °F - 66.2 °F 88% 29.98 in 1.6 mi Calm Calm - N/A   Haze
6:40 AM 71.6 °F - 66.2 °F 83% 29.98 in 1.2 mi Calm Calm - N/A   Partly Cloudy
7:10 AM 71.6 °F - 66.2 °F 83% 29.98 in 1.2 mi Calm Calm - N/A   Partly Cloudy
8:30 AM 74 °F - 66 °F 70% 29.99 in 1 mi NNE 4.6 mph - -   Mist
8:40 AM 75.2 °F - 66.2 °F 73% 30.01 in 1.2 mi NNE 4.6 mph - N/A   Partly Cloudy
9:10 AM 77.0 °F - 66.2 °F 69% 30.01 in 1.2 mi NE 6.9 mph - N/A   Partly Cloudy
9:40 AM 78.8 °F - 66.2 °F 65% 30.01 in 1.6 mi NE 5.8 mph - N/A   Haze
10:40 AM 82.4 °F 83.9 °F 64.4 °F 54% 29.98 in 2.5 mi NE 4.6 mph - N/A   Haze
11:30 AM 85 °F - 62 °F 37% 29.96 in 2 mi NNE 9.2 mph - -   Haze
11:40 AM 86.0 °F 87.3 °F 64.4 °F 48% 29.95 in 3.1 mi NNE 9.2 mph - N/A   Haze
12:10 PM 86.0 °F 86.6 °F 62.6 °F 45% 29.95 in 3.1 mi ENE 6.9 mph - N/A   Haze
12:40 PM 87.8 °F 88.5 °F 62.6 °F 43% 29.92 in 3.1 mi NE 9.2 mph - N/A   Haze
1:10 PM 87.8 °F 88.5 °F 62.6 °F 43% 29.92 in 3.7 mi ENE 6.9 mph - N/A   Partly Cloudy
1:40 PM 89.6 °F 90.1 °F 62.6 °F 40% 29.89 in 3.7 mi NE 5.8 mph - N/A   Partly Cloudy
2:10 PM 89.6 °F 91.1 °F 64.4 °F 43% 29.89 in 3.7 mi East 2.3 mph - N/A   Partly Cloudy
2:40 PM 89.6 °F 91.1 °F 64.4 °F 43% 29.86 in 3.7 mi East 11.5 mph - N/A   Partly Cloudy
3:10 PM 89.6 °F 90.1 °F 62.6 °F 40% 29.86 in 3.7 mi ENE 12.7 mph - N/A   Partly Cloudy
3:40 PM 87.8 °F 88.5 °F 62.6 °F 43% 29.86 in 3.7 mi ESE 4.6 mph - N/A   Partly Cloudy
4:10 PM 86.0 °F 86.6 °F 62.6 °F 45% 29.89 in 3.7 mi ESE 6.9 mph - N/A   Partly Cloudy
4:40 PM 86.0 °F 86.6 °F 62.6 °F 45% 29.89 in 3.7 mi ENE 10.4 mph - N/A   Partly Cloudy
5:10 PM 86.0 °F 86.6 °F 62.6 °F 45% 29.89 in 3.7 mi East 13.8 mph - N/A   Partly Cloudy
5:30 PM 84 °F - 58 °F 32% 29.87 in 2 mi ESE 10.4 mph - -   Haze
6:10 PM 82.4 °F 83.4 °F 62.6 °F 51% 29.89 in 3.1 mi East 5.8 mph - N/A   Haze
6:40 PM 82.4 °F 83.4 °F 62.6 °F 51% 29.89 in 3.1 mi East 6.9 mph - N/A   Haze
7:10 PM 82.4 °F 83.4 °F 62.6 °F 51% 29.89 in 3.1 mi East 6.9 mph - N/A   Haze
7:40 PM 80.6 °F 81.8 °F 62.6 °F 54% 29.89 in 2.5 mi East 2.3 mph - N/A   Haze
8:10 PM 77.0 °F - 62.6 °F 61% 29.92 in 2.5 mi East 4.6 mph - N/A   Haze
8:30 PM 75 °F - 61 °F 52% 29.93 in 1 mi Calm Calm - -   Haze
8:40 PM 75.2 °F - 60.8 °F 61% 29.92 in 2.5 mi Calm Calm - N/A   Haze
9:10 PM 75.2 °F - 62.6 °F 65% 29.95 in 2.5 mi Calm Calm - N/A   Haze
9:40 PM 75.2 °F - 62.6 °F 65% 29.95 in 2.5 mi Calm Calm - N/A   Haze
10:10 PM 73.4 °F - 62.6 °F 69% 29.95 in 2.5 mi Calm Calm - N/A   Haze
10:40 PM 73.4 °F - 64.4 °F 73% 29.95 in 2.5 mi Calm Calm - N/A   Haze
11:10 PM 73.4 °F - 64.4 °F 73% 29.95 in 2.2 mi Calm Calm - N/A   Haze
11:40 PM 71.6 °F - 64.4 °F 78% 29.92 in 2.2 mi Calm Calm - N/A   Haze